Regional Weather Roundup
Issued by NWS Newport/Morehead, NC

Current Version | Previous Version | Graphics & Text | Print | Product List | Glossary Off
Versions: 1 2 3 4 5 6 7 8 9 10 11 12 13 14 15 16 17 18 19 20 21 22 23 24 25 26 27 28 29 30 31 32 33 34 35 36 37 38 39 40 41 42 43 44 45 46 47 48 49 50

000
ASUS42 KMHX 290413
RWRMHX
WEATHER ROUNDUP FOR EASTERN NORTH CAROLINA
NATIONAL WEATHER SERVICE NEWPORT/MOREHEAD CITY NC
1200 AM EDT SUN MAY 29 2016

NOTE: "FAIR" INDICATES FEW OR NO CLOUDS BELOW 12,000 FEET
WITH NO SIGNIFICANT WEATHER AND/OR OBSTRUCTIONS TO VISIBILITY

NCZ015>017-031-032-045>047-102-103-290500-
NORTH COAST

CITY           SKY/WX    TMP DP  RH WIND       PRES   REMARKS
EDENTON        CLOUDY   N/A N/A N/A E5        30.15S
ELIZABETH CITY PTCLDY    71  69  93 E6        30.15F
KITTY HAWK     CLEAR     71  68  91 CALM      30.14F FOG
MANTEO         NOT AVBL

$$

NCZ045>047-081-094-103-104-290500-
CENTRAL COAST

CITY           SKY/WX    TMP DP  RH WIND       PRES   REMARKS
FRISCO         MOCLDY    76  72  87 E7        30.14S

$$

NCZ095-097-098-100-101-290500-
SOUTHERN COAST

CITY           SKY/WX    TMP DP  RH WIND       PRES   REMARKS
BEAUFORT       PTCLDY    76  72  87 E6        30.11S
CEDAR ISLAND   NOT AVBL
JACKSONVILLE   CLOUDY    74  69  85 NE8       30.10S
PINEY ISLAND   NOT AVBL
WILMINGTON     LGT RAIN  74  72  93 E8        30.08F


$$

NCZ011>013-027>030-043-044-078>080-089-090>093-098-290500-
COASTAL PLAIN

CITY           SKY/WX    TMP DP  RH WIND       PRES   REMARKS
AHOSKIE        CLOUDY    68  64  89 CALM      30.15S
CLINTON        CLOUDY    72  67  83 CALM      30.12F
ELIZABETHTOWN  LGT RAIN  72  69  92 CALM      30.10F
GOLDSBORO      NOT AVBL
GREENVILLE     CLOUDY    72  70  94 CALM      30.15S
HAVELOCK       CLEAR     74  71  91 E6        30.12F
KENANSVILLE    CLOUDY    69  66  90 CALM      30.13S
KINSTON        CLOUDY    72  69  89 NE5       30.14S
NEW BERN       PTCLDY    73  70  90 NE5       30.13S
RICHLANDS      CLOUDY    71  70  96 NE6       30.12S
ROCKY MOUNT    CLOUDY    71  64  78 CALM      30.14S
WASHINGTON     CLOUDY    71  68  92 E3        30.13S
WHITEVILLE     LGT RAIN  71  68  92 NE5       30.08F

$$

AMZ130-135-150-152-154-156-158-170-250-252-270-ANZ085-086-088-633-658-670-290500-
MARINE OBSERVATIONS

STATION/POSITION TIME  TEMP    WIND        PRES    WAVE   SWELL
                       AIR SEA DIR/SP/G            HT/PER HT/PER
                 (UTC) (F)     (DEG/KT/KT) (MB)    (FT/S) (FT/S)
CHESAPEAKE LIGHT 0400   70      90/ 10/ 10 1022.0
64 E VA BEACH    0350   69 65  110/  4/  4 1021.2    4/ 8   3/ 8
DUCK             0300   69 60              1020.6
2 E DUCK         0311      67                N/A     3/ 6
OREGON INLET     0300   72 74              1021.0
13E OREGON INLT  0300      71                N/A     3/ 8   3/ 8
HATTERAS CG      0300   76 76              1020.0
DIAMOND BUOY     0350   78 78  140/ 14/ 16 1019.9    5/ 9   3/ 9
CAPE LOOKOUT     0400   75     100/  9/  9 1019.1
BEAUFORT LAB     0300   77 75              1018.9
30 SE NEW RVR IN 0325      75                N/A     5/ 7
27 SE WRIGHTSVLE 0308   74 75  110/ 14/ 17 1018.3
5 SE WRIGHTSVLE  NOT AVBL
225 S CAPE HAT   0350   75 75  130/ 16/ 17 1018.7    5/ 6
41 SE CHARLESTON 0350   76 78   80/ 14/ 16 1014.5    8/ 8   5/ 8

$$




USA.gov is the U.S. government's official web portal to all federal, state and local government web resources and services.